| time (UTC) | temp F | wind direction | speed MPH | gust MPH | rain 1hr in | rain 24hr in | rain mn in | humidity % | barometer mb |
| 20260507191016 | 57 | 288 | 10.0 | 17.0 | 0.00 | 0.02 | 0.00 | 26 | 1018.1 |
| 20260507190513 | 56 | 250 | 6.0 | 16.0 | 0.00 | 0.02 | 0.00 | 27 | 1018.2 |
| 20260507190030 | 57 | 260 | 10.0 | 16.0 | 0.00 | 0.02 | 0.00 | 26 | 1018.3 |
| 20260507185516 | 56 | 273 | 9.0 | 16.0 | 0.00 | 0.02 | 0.00 | 27 | 1018.4 |
| 20260507185015 | 56 | 271 | 9.0 | 15.0 | 0.00 | 0.02 | 0.00 | 27 | 1018.5 |
| 20260507184530 | 56 | 274 | 8.0 | 15.0 | 0.00 | 0.02 | 0.00 | 25 | 1018.5 |
| 20260507184017 | 56 | 244 | 9.0 | 15.0 | 0.00 | 0.02 | 0.00 | 24 | 1018.5 |
| 20260507183514 | 56 | 294 | 10.0 | 15.0 | 0.00 | 0.02 | 0.00 | 26 | 1018.5 |
| 20260507183032 | 56 | 265 | 9.0 | 15.0 | 0.00 | 0.02 | 0.00 | 26 | 1018.4 |
| 20260507182514 | 56 | 244 | 8.0 | 15.0 | 0.00 | 0.02 | 0.00 | 26 | 1018.4 |
| 20260507182014 | 56 | 260 | 6.0 | 13.0 | 0.00 | 0.02 | 0.00 | 26 | 1018.4 |
| 20260507181530 | 56 | 274 | 6.0 | 13.0 | 0.00 | 0.02 | 0.00 | 27 | 1018.5 |
| 20260507181013 | 55 | 211 | 6.0 | 13.0 | 0.00 | 0.02 | 0.00 | 26 | 1018.4 |
| 20260507180519 | 55 | 256 | 5.0 | 14.0 | 0.00 | 0.02 | 0.00 | 24 | 1018.4 |
| 20260507180031 | 55 | 245 | 7.0 | 14.0 | 0.00 | 0.02 | 0.00 | 25 | 1018.5 |
| 20260507175515 | 55 | 230 | 4.0 | 14.0 | 0.00 | 0.02 | 0.00 | 25 | 1018.5 |
| 20260507175016 | 56 | 270 | 9.0 | 14.0 | 0.00 | 0.02 | 0.00 | 25 | 1018.6 |
| 20260507174540 | 56 | 239 | 3.0 | 12.0 | 0.00 | 0.02 | 0.00 | 27 | 1018.7 |
| 20260507174014 | 56 | 290 | 5.0 | 12.0 | 0.00 | 0.02 | 0.00 | 26 | 1018.7 |
| 20260507173514 | 55 | 240 | 7.0 | 17.0 | 0.00 | 0.02 | 0.00 | 29 | 1018.7 |
| 20260507173036 | 56 | 254 | 10.0 | 17.0 | 0.00 | 0.02 | 0.00 | 27 | 1018.7 |
| 20260507172513 | 55 | 297 | 9.0 | 14.0 | 0.00 | 0.02 | 0.00 | 27 | 1018.9 |
| 20260507172015 | 55 | 269 | 10.0 | 13.0 | 0.00 | 0.02 | 0.00 | 27 | 1019.0 |
| 20260507171535 | 55 | 298 | 7.0 | 13.0 | 0.00 | 0.02 | 0.00 | 28 | 1019.1 |
| 20260507171012 | 55 | 256 | 6.0 | 11.0 | 0.00 | 0.02 | 0.00 | 28 | 1018.9 |
| 20260507170512 | 55 | 242 | 6.0 | 12.0 | 0.00 | 0.02 | 0.00 | 27 | 1019.1 |
| 20260507170041 | 54 | 303 | 6.0 | 13.0 | 0.00 | 0.02 | 0.00 | 27 | 1019.1 |
| 20260507165514 | 54 | 301 | 7.0 | 13.0 | 0.00 | 0.03 | 0.00 | 27 | 1019.1 |
| 20260507165015 | 54 | 271 | 6.0 | 12.0 | 0.00 | 0.03 | 0.00 | 27 | 1019.2 |
| 20260507164533 | 54 | 299 | 8.0 | 14.0 | 0.00 | 0.03 | 0.00 | 27 | 1019.2 |
| 20260507164018 | 54 | 289 | 9.0 | 14.0 | 0.00 | 0.03 | 0.00 | 26 | 1019.2 |
| 20260507163515 | 53 | 244 | 8.0 | 12.0 | 0.00 | 0.03 | 0.00 | 24 | 1019.3 |
| 20260507163029 | 53 | 252 | 7.0 | 13.0 | 0.00 | 0.03 | 0.00 | 29 | 1019.4 |
| 20260507162512 | 53 | 235 | 8.0 | 15.0 | 0.00 | 0.03 | 0.00 | 29 | 1019.4 |
| 20260507162014 | 53 | 252 | 10.0 | 15.0 | 0.00 | 0.03 | 0.00 | 30 | 1019.4 |
| 20260507161532 | 52 | 278 | 8.0 | 13.0 | 0.00 | 0.03 | 0.00 | 32 | 1019.5 |
| 20260507161013 | 52 | 252 | 8.0 | 13.0 | 0.00 | 0.03 | 0.00 | 34 | 1019.4 |
| 20260507160512 | 51 | 264 | 7.0 | 14.0 | 0.00 | 0.03 | 0.00 | 35 | 1019.4 |
| 20260507160033 | 51 | 238 | 8.0 | 14.0 | 0.00 | 0.03 | 0.00 | 37 | 1019.4 |
| 20260507155513 | 51 | 280 | 10.0 | 14.0 | 0.00 | 0.03 | 0.00 | 40 | 1019.4 |
| 20260507155013 | 50 | 242 | 10.0 | 15.0 | 0.00 | 0.03 | 0.00 | 41 | 1019.4 |
| 20260507154533 | 50 | 271 | 10.0 | 15.0 | 0.00 | 0.03 | 0.00 | 42 | 1019.4 |
| 20260507154014 | 49 | 255 | 10.0 | 15.0 | 0.00 | 0.03 | 0.00 | 41 | 1019.5 |
| 20260507153512 | 49 | 254 | 12.0 | 15.0 | 0.00 | 0.03 | 0.00 | 41 | 1019.4 |
| 20260507153031 | 49 | 247 | 12.0 | 14.0 | 0.00 | 0.03 | 0.00 | 42 | 1019.3 |
| 20260507152518 | 49 | 245 | 10.0 | 14.0 | 0.00 | 0.03 | 0.00 | 42 | 1019.4 |
| 20260507152015 | 48 | 245 | 11.0 | 14.0 | 0.00 | 0.03 | 0.00 | 43 | 1019.4 |
| 20260507151531 | 48 | 252 | 10.0 | 16.0 | 0.00 | 0.03 | 0.00 | 43 | 1019.4 |
| 20260507151012 | 48 | 245 | 9.0 | 16.0 | 0.00 | 0.03 | 0.00 | 44 | 1019.3 |
| 20260507150514 | 47 | 261 | 11.0 | 16.0 | 0.00 | 0.03 | 0.00 | 42 | 1019.4 |
| 20260507150033 | 47 | 254 | 11.0 | 15.0 | 0.00 | 0.03 | 0.00 | 41 | 1019.3 |
| 20260507145515 | 47 | 240 | 11.0 | 16.0 | 0.00 | 0.03 | 0.00 | 42 | 1019.2 |
| 20260507145012 | 46 | 241 | 11.0 | 16.0 | 0.00 | 0.03 | 0.00 | 44 | 1019.2 |
| 20260507144530 | 46 | 254 | 11.0 | 16.0 | 0.00 | 0.03 | 0.00 | 45 | 1019.3 |
| 20260507144014 | 45 | 254 | 12.0 | 16.0 | 0.00 | 0.03 | 0.00 | 45 | 1019.4 |
| 20260507143514 | 45 | 254 | 12.0 | 16.0 | 0.00 | 0.03 | 0.00 | 45 | 1019.3 |
| 20260507143034 | 44 | 248 | 11.0 | 16.0 | 0.00 | 0.03 | 0.00 | 46 | 1019.3 |
| 20260507142512 | 43 | 248 | 10.0 | 13.0 | 0.00 | 0.03 | 0.00 | 47 | 1019.2 |
| 20260507142014 | 43 | 263 | 9.0 | 13.0 | 0.00 | 0.03 | 0.00 | 48 | 1019.5 |
| 20260507141531 | 43 | 254 | 9.0 | 13.0 | 0.00 | 0.03 | 0.00 | 46 | 1019.4 |
| 20260507141012 | 44 | 261 | 9.0 | 12.0 | 0.00 | 0.03 | 0.00 | 45 | 1019.4 |
| 20260507140513 | 44 | 259 | 5.0 | 10.0 | 0.00 | 0.03 | 0.00 | 45 | 1019.3 |
| 20260507140032 | 44 | 246 | 6.0 | 10.0 | 0.00 | 0.03 | 0.00 | 41 | 1019.4 |
| 20260507135517 | 44 | 0 | 0.0 | 6.0 | 0.00 | 0.03 | 0.00 | 44 | 1019.2 |
| 20260507135015 | 44 | 169 | 2.0 | 6.0 | 0.00 | 0.03 | 0.00 | 44 | 1019.3 |
| 20260507134531 | 44 | 0 | 0.0 | 2.0 | 0.00 | 0.03 | 0.00 | 45 | 1019.2 |
| 20260507134015 | 43 | 0 | 0.0 | 2.0 | 0.00 | 0.03 | 0.00 | 46 | 1019.2 |
| 20260507133513 | 42 | 0 | 0.0 | 2.0 | 0.00 | 0.03 | 0.00 | 48 | 1019.0 |
| 20260507133030 | 41 | 0 | 0.0 | 2.0 | 0.00 | 0.03 | 0.00 | 48 | 1019.0 |
| 20260507132515 | 40 | 0 | 0.0 | 4.0 | 0.00 | 0.03 | 0.00 | 50 | 1019.0 |
| 20260507132015 | 39 | 0 | 0.0 | 4.0 | 0.00 | 0.03 | 0.00 | 51 | 1019.0 |
| 20260507131536 | 39 | 138 | 2.0 | 4.0 | 0.00 | 0.03 | 0.00 | 52 | 1018.9 |
| 20260507131016 | 38 | 133 | 1.0 | 3.0 | 0.00 | 0.03 | 0.00 | 53 | 1019.1 |
| 20260507130515 | 37 | 144 | 1.0 | 2.0 | 0.00 | 0.03 | 0.00 | 56 | 1018.9 |
| 20260507130032 | 36 | 0 | 0.0 | 4.0 | 0.00 | 0.03 | 0.00 | 57 | 1018.8 |
| 20260507125512 | 35 | 143 | 0.0 | 6.0 | 0.00 | 0.03 | 0.00 | 58 | 1018.7 |
| 20260507125011 | 34 | 0 | 2.0 | 6.0 | 0.00 | 0.03 | 0.00 | 58 | 1018.7 |
| 20260507124528 | 34 | 171 | 4.0 | 6.0 | 0.00 | 0.03 | 0.00 | 58 | 1018.7 |
| 20260507124016 | 33 | 155 | 3.0 | 7.0 | 0.00 | 0.03 | 0.00 | 58 | 1018.6 |
| 20260507123514 | 33 | 147 | 3.0 | 7.0 | 0.00 | 0.03 | 0.00 | 58 | 1018.6 |
| 20260507123030 | 32 | 142 | 4.0 | 7.0 | 0.00 | 0.03 | 0.00 | 59 | 1018.5 |
| 20260507122513 | 31 | 142 | 4.0 | 7.0 | 0.00 | 0.03 | 0.00 | 60 | 1018.3 |
| 20260507122014 | 31 | 130 | 4.0 | 7.0 | 0.00 | 0.03 | 0.00 | 61 | 1018.2 |
| 20260507121532 | 30 | 117 | 3.0 | 8.0 | 0.00 | 0.03 | 0.00 | 60 | 1018.4 |
| 20260507121012 | 30 | 151 | 5.0 | 8.0 | 0.00 | 0.03 | 0.00 | 60 | 1018.3 |
| 20260507120514 | 30 | 130 | 4.0 | 7.0 | 0.00 | 0.03 | 0.00 | 60 | 1018.2 |
| 20260507120039 | 30 | 160 | 1.0 | 5.0 | 0.00 | 0.03 | 0.00 | 60 | 1018.3 |
| 20260507115514 | 30 | 160 | 1.0 | 4.0 | 0.00 | 0.03 | 0.00 | 60 | 1018.4 |
| 20260507115015 | 30 | 118 | 2.0 | 4.0 | 0.00 | 0.03 | 0.00 | 60 | 1018.4 |
| 20260507114532 | 30 | 173 | 0.0 | 3.0 | 0.00 | 0.03 | 0.00 | 61 | 1018.4 |
| 20260507114013 | 30 | 173 | 0.0 | 4.0 | 0.00 | 0.03 | 0.00 | 61 | 1018.4 |
| 20260507113513 | 30 | 173 | 1.0 | 4.0 | 0.00 | 0.03 | 0.00 | 62 | 1018.3 |
| 20260507113030 | 29 | 0 | 0.0 | 4.0 | 0.00 | 0.03 | 0.00 | 62 | 1018.4 |
| 20260507112514 | 29 | 169 | 1.0 | 6.0 | 0.00 | 0.03 | 0.00 | 62 | 1018.3 |
| 20260507112014 | 30 | 169 | 3.0 | 6.0 | 0.00 | 0.03 | 0.00 | 62 | 1018.4 |
| 20260507111531 | 30 | 170 | 4.0 | 6.0 | 0.00 | 0.03 | 0.00 | 62 | 1018.5 |
| 20260507111014 | 30 | 179 | 4.0 | 6.0 | 0.00 | 0.03 | 0.00 | 63 | 1018.3 |
| 20260507110515 | 30 | 179 | 3.0 | 6.0 | 0.00 | 0.03 | 0.00 | 63 | 1018.3 |
| 20260507110030 | 30 | 163 | 4.0 | 7.0 | 0.00 | 0.03 | 0.00 | 63 | 1018.2 |
| 20260507105512 | 30 | 146 | 3.0 | 7.0 | 0.00 | 0.03 | 0.00 | 64 | 1018.3 |
| 20260507105012 | 30 | 163 | 3.0 | 6.0 | 0.00 | 0.03 | 0.00 | 64 | 1018.2 |
| 20260507104532 | 30 | 238 | 2.0 | 4.0 | 0.00 | 0.03 | 0.00 | 64 | 1018.3 |
| 20260507104015 | 30 | 238 | 2.0 | 4.0 | 0.00 | 0.03 | 0.00 | 64 | 1018.4 |
| 20260507103517 | 31 | 238 | 1.0 | 6.0 | 0.00 | 0.03 | 0.00 | 63 | 1018.4 |
| 20260507103033 | 32 | 238 | 1.0 | 9.0 | 0.00 | 0.03 | 0.00 | 63 | 1018.4 |
| 20260507102515 | 32 | 233 | 4.0 | 10.0 | 0.00 | 0.03 | 0.00 | 63 | 1018.4 |
| 20260507102014 | 31 | 246 | 5.0 | 10.0 | 0.00 | 0.03 | 0.00 | 64 | 1018.5 |
| 20260507101531 | 31 | 244 | 5.0 | 10.0 | 0.00 | 0.03 | 0.00 | 65 | 1018.6 |
| 20260507101011 | 31 | 246 | 4.0 | 9.0 | 0.00 | 0.03 | 0.00 | 66 | 1018.6 |
| 20260507100512 | 32 | 246 | 3.0 | 9.0 | 0.00 | 0.03 | 0.00 | 67 | 1018.6 |
| 20260507100035 | 31 | 248 | 6.0 | 9.0 | 0.00 | 0.03 | 0.00 | 67 | 1018.6 |
| 20260507095517 | 31 | 255 | 4.0 | 8.0 | 0.00 | 0.03 | 0.00 | 68 | 1018.5 |
| 20260507095015 | 31 | 255 | 5.0 | 8.0 | 0.00 | 0.03 | 0.00 | 69 | 1018.5 |
| 20260507094537 | 31 | 279 | 4.0 | 10.0 | 0.00 | 0.03 | 0.00 | 69 | 1018.5 |
| 20260507094012 | 32 | 279 | 4.0 | 10.0 | 0.00 | 0.03 | 0.00 | 69 | 1018.5 |
| 20260507093512 | 31 | 263 | 7.0 | 10.0 | 0.00 | 0.03 | 0.00 | 69 | 1018.4 |
| 20260507093030 | 31 | 251 | 6.0 | 10.0 | 0.00 | 0.03 | 0.00 | 71 | 1018.4 |
| 20260507092513 | 31 | 255 | 8.0 | 11.0 | 0.00 | 0.03 | 0.00 | 71 | 1018.5 |
| 20260507092014 | 31 | 251 | 7.0 | 11.0 | 0.00 | 0.03 | 0.00 | 72 | 1018.5 |
| 20260507091531 | 32 | 267 | 8.0 | 11.0 | 0.00 | 0.03 | 0.00 | 72 | 1018.6 |
| 20260507091014 | 31 | 260 | 7.0 | 10.0 | 0.00 | 0.03 | 0.00 | 75 | 1018.5 |
| 20260507090515 | 31 | 267 | 7.0 | 10.0 | 0.00 | 0.03 | 0.00 | 76 | 1018.7 |
| 20260507090036 | 31 | 258 | 7.0 | 10.0 | 0.00 | 0.03 | 0.00 | 79 | 1018.8 |
| 20260507085512 | 29 | 250 | 6.0 | 8.0 | 0.00 | 0.03 | 0.00 | 83 | 1018.8 |
| 20260507085012 | 27 | 248 | 0.0 | 5.0 | 0.00 | 0.03 | 0.00 | 84 | 1018.8 |
| 20260507084528 | 27 | 0 | 1.0 | 7.0 | 0.00 | 0.03 | 0.00 | 84 | 1018.8 |
| 20260507084014 | 27 | 142 | 4.0 | 7.0 | 0.00 | 0.03 | 0.00 | 84 | 1018.8 |
| 20260507083514 | 27 | 119 | 3.0 | 5.0 | 0.00 | 0.03 | 0.00 | 84 | 1018.8 |
| 20260507083032 | 27 | 114 | 2.0 | 4.0 | 0.00 | 0.03 | 0.00 | 85 | 1018.7 |
| 20260507082513 | 27 | 0 | 2.0 | 5.0 | 0.00 | 0.03 | 0.00 | 86 | 1019.0 |
| 20260507082013 | 27 | 132 | 3.0 | 5.0 | 0.00 | 0.03 | 0.00 | 86 | 1018.8 |
| 20260507081541 | 27 | 128 | 2.0 | 4.0 | 0.00 | 0.03 | 0.00 | 86 | 1019.1 |
| 20260507081012 | 27 | 128 | 2.0 | 4.0 | 0.00 | 0.03 | 0.00 | 87 | 1018.9 |
| 20260507080512 | 27 | 129 | 2.0 | 5.0 | 0.00 | 0.03 | 0.00 | 87 | 1018.9 |
| 20260507080031 | 27 | 133 | 2.0 | 7.0 | 0.00 | 0.03 | 0.00 | 88 | 1018.9 |
| 20260507075516 | 27 | 148 | 3.0 | 7.0 | 0.00 | 0.03 | 0.00 | 88 | 1019.2 |
| 20260507075011 | 27 | 150 | 4.0 | 7.0 | 0.00 | 0.03 | 0.00 | 89 | 1019.2 |
| 20260507074546 | 27 | 146 | 4.0 | 7.0 | 0.00 | 0.03 | 0.00 | 89 | 1019.0 |
| 20260507074011 | 27 | 144 | 2.0 | 6.0 | 0.00 | 0.03 | 0.00 | 90 | 1019.2 |
| 20260507073514 | 27 | 163 | 2.0 | 5.0 | 0.00 | 0.03 | 0.00 | 90 | 1019.1 |
| 20260507073030 | 27 | 173 | 2.0 | 5.0 | 0.00 | 0.03 | 0.00 | 90 | 1019.2 |
| 20260507072516 | 27 | 173 | 2.0 | 7.0 | 0.00 | 0.03 | 0.00 | 90 | 1019.3 |
| 20260507072010 | 27 | 182 | 3.0 | 7.0 | 0.00 | 0.03 | 0.00 | 91 | 1019.4 |
| 20260507071530 | 27 | 179 | 3.0 | 7.0 | 0.00 | 0.03 | 0.00 | 91 | 1019.3 |
| 20260507071013 | 27 | 190 | 4.0 | 8.0 | 0.00 | 0.03 | 0.00 | 91 | 1019.3 |
| 20260507070512 | 27 | 189 | 5.0 | 8.0 | 0.00 | 0.03 | 0.00 | 91 | 1019.4 |
| 20260507070032 | 27 | 164 | 4.0 | 7.0 | 0.00 | 0.03 | 0.00 | 92 | 1019.4 |
| 20260507065512 | 27 | 181 | 4.0 | 7.0 | 0.00 | 0.03 | 0.00 | 92 | 1019.3 |
| 20260507065013 | 27 | 182 | 3.0 | 8.0 | 0.00 | 0.03 | 0.00 | 92 | 1019.3 |
| 20260507064530 | 27 | 182 | 5.0 | 8.0 | 0.00 | 0.03 | 0.00 | 92 | 1019.4 |
| 20260507064013 | 27 | 192 | 2.0 | 7.0 | 0.00 | 0.03 | 0.00 | 92 | 1019.6 |
| 20260507063514 | 28 | 176 | 4.0 | 8.0 | 0.00 | 0.03 | 0.00 | 93 | 1019.6 |
| 20260507063032 | 28 | 176 | 5.0 | 8.0 | 0.00 | 0.03 | 0.00 | 93 | 1019.4 |
| 20260507062514 | 27 | 176 | 5.0 | 8.0 | 0.00 | 0.03 | 0.00 | 93 | 1019.5 |
| 20260507062012 | 27 | 180 | 3.0 | 6.0 | 0.00 | 0.03 | 0.00 | 92 | 1019.6 |
| 20260507061533 | 27 | 178 | 2.0 | 6.0 | 0.00 | 0.03 | 0.00 | 93 | 1019.6 |
| 20260507061014 | 27 | 171 | 3.0 | 6.0 | 0.00 | 0.03 | 0.00 | 93 | 1019.5 |
| 20260507060514 | 27 | 177 | 2.0 | 5.0 | 0.00 | 0.03 | 0.00 | 92 | 1019.4 |
| 20260507060030 | 27 | 189 | 1.0 | 7.0 | 0.00 | 0.03 | 0.00 | 92 | 1019.4 |
| 20260507055514 | 27 | 0 | 3.0 | 7.0 | 0.00 | 0.03 | 0.03 | 93 | 1019.4 |
| 20260507055016 | 27 | 172 | 2.0 | 6.0 | 0.00 | 0.03 | 0.03 | 92 | 1019.4 |
| 20260507054532 | 27 | 192 | 2.0 | 4.0 | 0.00 | 0.03 | 0.03 | 92 | 1019.4 |
| 20260507054014 | 27 | 196 | 2.0 | 5.0 | 0.00 | 0.03 | 0.03 | 92 | 1019.3 |
| 20260507053513 | 28 | 200 | 2.0 | 5.0 | 0.00 | 0.03 | 0.03 | 92 | 1019.2 |
| 20260507053030 | 27 | 204 | 2.0 | 5.0 | 0.00 | 0.03 | 0.03 | 92 | 1019.4 |
| 20260507052512 | 27 | 188 | 2.0 | 6.0 | 0.00 | 0.03 | 0.03 | 92 | 1019.3 |
| 20260507052011 | 27 | 236 | 3.0 | 7.0 | 0.00 | 0.03 | 0.03 | 92 | 1019.2 |
| 20260507051530 | 27 | 200 | 3.0 | 8.0 | 0.00 | 0.03 | 0.03 | 92 | 1019.2 |
| 20260507051017 | 27 | 226 | 4.0 | 9.0 | 0.00 | 0.03 | 0.03 | 92 | 1019.2 |
| 20260507050515 | 27 | 178 | 2.0 | 9.0 | 0.00 | 0.03 | 0.03 | 92 | 1019.2 |
| 20260507050032 | 27 | 139 | 4.0 | 7.0 | 0.00 | 0.03 | 0.03 | 92 | 1019.3 |
| 20260507045514 | 27 | 194 | 3.0 | 8.0 | 0.00 | 0.03 | 0.03 | 92 | 1019.2 |
| 20260507045014 | 27 | 194 | 3.0 | 8.0 | 0.00 | 0.03 | 0.03 | 91 | 1019.2 |
| 20260507044529 | 27 | 170 | 4.0 | 8.0 | 0.00 | 0.03 | 0.03 | 91 | 1019.2 |
| 20260507044012 | 27 | 172 | 3.0 | 9.0 | 0.00 | 0.03 | 0.03 | 91 | 1019.2 |
| 20260507043513 | 27 | 173 | 5.0 | 10.0 | 0.00 | 0.03 | 0.03 | 91 | 1019.1 |
| 20260507043032 | 27 | 192 | 4.0 | 10.0 | 0.00 | 0.03 | 0.03 | 91 | 1019.2 |
| 20260507042515 | 27 | 160 | 3.0 | 10.0 | 0.00 | 0.03 | 0.03 | 91 | 1019.1 |
| 20260507042014 | 28 | 186 | 5.0 | 11.0 | 0.00 | 0.03 | 0.03 | 91 | 1019.1 |
| 20260507041530 | 28 | 215 | 5.0 | 11.0 | 0.00 | 0.03 | 0.03 | 91 | 1019.1 |
| 20260507041013 | 28 | 185 | 5.0 | 10.0 | 0.00 | 0.03 | 0.03 | 91 | 1019.2 |
| 20260507040513 | 28 | 225 | 1.0 | 11.0 | 0.00 | 0.03 | 0.03 | 90 | 1019.2 |
| 20260507040029 | 28 | 184 | 4.0 | 11.0 | 0.00 | 0.03 | 0.03 | 91 | 1019.1 |
| 20260507035512 | 28 | 171 | 5.0 | 10.0 | 0.00 | 0.03 | 0.03 | 90 | 1019.1 |
| 20260507035014 | 28 | 178 | 3.0 | 9.0 | 0.00 | 0.03 | 0.03 | 90 | 1019.2 |
| 20260507034530 | 28 | 176 | 2.0 | 7.0 | 0.00 | 0.03 | 0.03 | 90 | 1019.2 |
| 20260507034012 | 28 | 178 | 3.0 | 6.0 | 0.00 | 0.03 | 0.03 | 90 | 1019.2 |
| 20260507033511 | 28 | 180 | 3.0 | 10.0 | 0.00 | 0.03 | 0.03 | 90 | 1019.2 |
| 20260507033033 | 28 | 202 | 3.0 | 10.0 | 0.00 | 0.03 | 0.03 | 90 | 1019.1 |
| 20260507032511 | 28 | 183 | 4.0 | 12.0 | 0.00 | 0.03 | 0.03 | 90 | 1019.1 |
| 20260507032018 | 28 | 223 | 4.0 | 12.0 | 0.00 | 0.03 | 0.03 | 90 | 1019.0 |
| 20260507031532 | 28 | 219 | 3.0 | 10.0 | 0.00 | 0.03 | 0.03 | 90 | 1018.8 |
| 20260507031015 | 28 | 227 | 3.0 | 9.0 | 0.00 | 0.03 | 0.03 | 90 | 1018.9 |
| 20260507030513 | 28 | 192 | 3.0 | 9.0 | 0.00 | 0.03 | 0.03 | 90 | 1018.7 |
| 20260507030030 | 28 | 220 | 3.0 | 6.0 | 0.00 | 0.03 | 0.03 | 90 | 1018.7 |
| 20260507025511 | 28 | 209 | 3.0 | 7.0 | 0.00 | 0.03 | 0.03 | 90 | 1018.6 |
| 20260507025010 | 28 | 166 | 3.0 | 9.0 | 0.00 | 0.03 | 0.03 | 90 | 1018.6 |
| 20260507024533 | 29 | 189 | 2.0 | 9.0 | 0.00 | 0.03 | 0.03 | 90 | 1018.5 |
| 20260507024012 | 29 | 219 | 3.0 | 9.0 | 0.00 | 0.03 | 0.03 | 90 | 1018.6 |
| 20260507023511 | 29 | 174 | 3.0 | 9.0 | 0.00 | 0.03 | 0.03 | 90 | 1018.5 |
| 20260507023032 | 29 | 180 | 2.0 | 5.0 | 0.00 | 0.03 | 0.03 | 90 | 1018.5 |
| 20260507022511 | 29 | 207 | 2.0 | 8.0 | 0.00 | 0.03 | 0.03 | 90 | 1018.5 |
| 20260507022012 | 30 | 173 | 3.0 | 11.0 | 0.00 | 0.03 | 0.03 | 90 | 1018.5 |
| 20260507021535 | 30 | 168 | 5.0 | 12.0 | 0.00 | 0.03 | 0.03 | 90 | 1018.5 |
| 20260507021011 | 31 | 177 | 7.0 | 12.0 | 0.00 | 0.03 | 0.03 | 91 | 1018.5 |
| 20260507020516 | 32 | 184 | 6.0 | 10.0 | 0.00 | 0.03 | 0.03 | 91 | 1018.3 |
| 20260507020031 | 31 | 166 | 5.0 | 11.0 | 0.00 | 0.03 | 0.03 | 92 | 1018.3 |
| 20260507015510 | 31 | 159 | 6.0 | 11.0 | 0.00 | 0.03 | 0.03 | 92 | 1018.3 |
| 20260507015010 | 32 | 178 | 7.0 | 11.0 | 0.00 | 0.03 | 0.03 | 92 | 1018.2 |
| 20260507014543 | 32 | 194 | 6.0 | 11.0 | 0.00 | 0.03 | 0.03 | 91 | 1018.3 |
| 20260507014012 | 32 | 161 | 6.0 | 14.0 | 0.00 | 0.03 | 0.03 | 91 | 1018.2 |
| 20260507013513 | 32 | 167 | 7.0 | 14.0 | 0.00 | 0.03 | 0.03 | 91 | 1018.3 |
| 20260507013028 | 32 | 180 | 8.0 | 14.0 | 0.00 | 0.03 | 0.03 | 91 | 1018.2 |
| 20260507012513 | 32 | 175 | 7.0 | 13.0 | 0.00 | 0.03 | 0.03 | 91 | 1018.2 |
| 20260507012017 | 32 | 161 | 6.0 | 15.0 | 0.00 | 0.03 | 0.03 | 91 | 1018.4 |
| 20260507011533 | 33 | 198 | 9.0 | 15.0 | 0.00 | 0.03 | 0.03 | 90 | 1018.2 |
| 20260507011013 | 33 | 174 | 8.0 | 12.0 | 0.00 | 0.03 | 0.03 | 90 | 1018.2 |
| 20260507010514 | 34 | 171 | 6.0 | 12.0 | 0.00 | 0.03 | 0.03 | 90 | 1018.2 |
| 20260507010034 | 34 | 155 | 6.0 | 11.0 | 0.00 | 0.03 | 0.03 | 90 | 1018.2 |
| 20260507005512 | 34 | 175 | 6.0 | 12.0 | 0.00 | 0.03 | 0.03 | 90 | 1018.1 |
| 20260507005017 | 34 | 209 | 7.0 | 12.0 | 0.00 | 0.03 | 0.03 | 90 | 1018.2 |
| 20260507004530 | 34 | 149 | 5.0 | 10.0 | 0.00 | 0.03 | 0.03 | 90 | 1018.2 |
| 20260507004015 | 34 | 212 | 4.0 | 11.0 | 0.00 | 0.03 | 0.03 | 90 | 1018.0 |
| 20260507003512 | 35 | 193 | 6.0 | 11.0 | 0.00 | 0.03 | 0.03 | 91 | 1018.0 |
| 20260507003033 | 36 | 200 | 4.0 | 12.0 | 0.00 | 0.03 | 0.03 | 91 | 1018.0 |
| 20260507002513 | 35 | 181 | 6.0 | 12.0 | 0.00 | 0.03 | 0.03 | 92 | 1018.0 |
| 20260507002013 | 36 | 169 | 5.0 | 11.0 | 0.00 | 0.03 | 0.03 | 92 | 1018.0 |
| 20260507001529 | 36 | 219 | 5.0 | 10.0 | 0.00 | 0.03 | 0.03 | 91 | 1018.1 |
| 20260507001017 | 35 | 171 | 6.0 | 12.0 | 0.00 | 0.03 | 0.03 | 91 | 1018.2 |
| 20260507000512 | 35 | 182 | 6.0 | 12.0 | 0.00 | 0.03 | 0.03 | 91 | 1018.2 |
| 20260507000036 | 34 | 181 | 5.0 | 9.0 | 0.00 | 0.03 | 0.03 | 90 | 1018.3 |
| 20260506235511 | 34 | 158 | 5.0 | 8.0 | 0.00 | 0.05 | 0.03 | 90 | 1018.3 |
| 20260506235012 | 34 | 190 | 5.0 | 9.0 | 0.00 | 0.05 | 0.03 | 88 | 1018.2 |
| 20260506234532 | 34 | 208 | 3.0 | 9.0 | 0.00 | 0.05 | 0.03 | 88 | 1018.1 |
| 20260506234011 | 35 | 172 | 4.0 | 9.0 | 0.00 | 0.05 | 0.03 | 87 | 1018.2 |
| 20260506233513 | 35 | 227 | 2.0 | 7.0 | 0.00 | 0.05 | 0.03 | 86 | 1018.1 |
| 20260506233033 | 35 | 218 | 3.0 | 8.0 | 0.00 | 0.05 | 0.03 | 85 | 1018.2 |
| 20260506232513 | 35 | 202 | 2.0 | 8.0 | 0.00 | 0.05 | 0.03 | 85 | 1018.1 |
| 20260506232012 | 35 | 234 | 2.0 | 9.0 | 0.00 | 0.05 | 0.03 | 85 | 1018.4 |
| 20260506231532 | 35 | 203 | 4.0 | 9.0 | 0.00 | 0.05 | 0.03 | 84 | 1018.2 |
| 20260506231012 | 35 | 234 | 3.0 | 9.0 | 0.00 | 0.05 | 0.03 | 86 | 1018.2 |
| 20260506230515 | 35 | 217 | 3.0 | 6.0 | 0.00 | 0.05 | 0.03 | 85 | 1018.2 |
| 20260506230031 | 35 | 215 | 3.0 | 5.0 | 0.00 | 0.05 | 0.03 | 86 | 1018.0 |
| 20260506225515 | 35 | 0 | 2.0 | 5.0 | 0.00 | 0.06 | 0.03 | 85 | 1018.0 |
| 20260506225011 | 34 | 292 | 1.0 | 5.0 | 0.00 | 0.06 | 0.03 | 86 | 1018.1 |
| 20260506224529 | 34 | 0 | 1.0 | 5.0 | 0.00 | 0.06 | 0.03 | 86 | 1018.1 |
| 20260506224015 | 33 | 0 | 1.0 | 5.0 | 0.00 | 0.06 | 0.03 | 86 | 1018.2 |
| 20260506223511 | 33 | 292 | 2.0 | 5.0 | 0.01 | 0.06 | 0.03 | 86 | 1018.3 |
| 20260506223027 | 33 | 0 | 0.0 | 5.0 | 0.01 | 0.06 | 0.03 | 87 | 1018.3 |
| 20260506222513 | 32 | 292 | 2.0 | 8.0 | 0.01 | 0.06 | 0.03 | 86 | 1018.4 |
| 20260506222018 | 32 | 331 | 2.0 | 8.0 | 0.01 | 0.06 | 0.03 | 87 | 1018.4 |
| 20260506221530 | 32 | 297 | 4.0 | 8.0 | 0.01 | 0.06 | 0.03 | 87 | 1018.5 |
| 20260506221021 | 32 | 311 | 2.0 | 9.0 | 0.01 | 0.06 | 0.03 | 87 | 1018.6 |
| 20260506220512 | 31 | 334 | 3.0 | 9.0 | 0.02 | 0.06 | 0.03 | 88 | 1018.5 |
| 20260506220030 | 31 | 319 | 3.0 | 10.0 | 0.02 | 0.06 | 0.03 | 88 | 1018.5 |
| 20260506215516 | 31 | 5 | 5.0 | 10.0 | 0.02 | 0.07 | 0.03 | 89 | 1018.5 |
| 20260506215010 | 31 | 30 | 4.0 | 10.0 | 0.02 | 0.07 | 0.03 | 89 | 1018.5 |
| 20260506214531 | 31 | 32 | 5.0 | 10.0 | 0.02 | 0.07 | 0.03 | 89 | 1018.5 |
| 20260506214014 | 31 | 19 | 6.0 | 11.0 | 0.02 | 0.07 | 0.03 | 89 | 1018.6 |
| 20260506213511 | 31 | 346 | 5.0 | 11.0 | 0.01 | 0.06 | 0.02 | 89 | 1018.7 |
| 20260506213030 | 31 | 360 | 5.0 | 10.0 | 0.01 | 0.06 | 0.02 | 90 | 1018.7 |
| 20260506212514 | 30 | 320 | 4.0 | 9.0 | 0.01 | 0.06 | 0.02 | 89 | 1018.9 |
| 20260506212013 | 30 | 360 | 2.0 | 9.0 | 0.01 | 0.06 | 0.02 | 89 | 1018.9 |
| 20260506211534 | 31 | 17 | 3.0 | 9.0 | 0.01 | 0.06 | 0.02 | 89 | 1019.0 |
| 20260506211013 | 31 | 348 | 6.0 | 9.0 | 0.01 | 0.06 | 0.02 | 89 | 1019.0 |
| 20260506210517 | 31 | 15 | 4.0 | 9.0 | 0.00 | 0.05 | 0.01 | 92 | 1018.9 |
| 20260506210031 | 30 | 347 | 5.0 | 10.0 | 0.00 | 0.05 | 0.01 | 91 | 1018.8 |
| 20260506205515 | 30 | 41 | 6.0 | 10.0 | 0.00 | 0.05 | 0.01 | 90 | 1018.9 |
| 20260506205012 | 30 | 24 | 6.0 | 12.0 | 0.00 | 0.05 | 0.01 | 90 | 1018.8 |
| 20260506204531 | 30 | 11 | 8.0 | 12.0 | 0.00 | 0.05 | 0.01 | 91 | 1018.9 |
| 20260506204011 | 30 | 5 | 9.0 | 13.0 | 0.00 | 0.05 | 0.01 | 91 | 1019.0 |
| 20260506203518 | 30 | 10 | 7.0 | 13.0 | 0.00 | 0.05 | 0.01 | 92 | 1019.0 |
| 20260506203030 | 29 | 34 | 9.0 | 14.0 | 0.00 | 0.05 | 0.01 | 91 | 1018.9 |
| 20260506202512 | 29 | 43 | 9.0 | 14.0 | 0.00 | 0.05 | 0.01 | 92 | 1019.0 |
| 20260506202011 | 29 | 24 | 12.0 | 14.0 | 0.00 | 0.05 | 0.01 | 91 | 1018.9 |
| 20260506201531 | 29 | 14 | 11.0 | 14.0 | 0.00 | 0.05 | 0.01 | 92 | 1019.0 |
| 20260506201013 | 29 | 31 | 10.0 | 14.0 | 0.00 | 0.05 | 0.01 | 91 | 1018.9 |
| 20260506200517 | 29 | 28 | 11.0 | 14.0 | 0.00 | 0.05 | 0.01 | 91 | 1018.9 |
| 20260506200030 | 29 | 41 | 9.0 | 14.0 | 0.00 | 0.05 | 0.01 | 91 | 1018.8 |
| 20260506195512 | 30 | 36 | 10.0 | 14.0 | 0.00 | 0.06 | 0.01 | 91 | 1018.8 |
| 20260506195011 | 30 | 21 | 8.0 | 13.0 | 0.00 | 0.06 | 0.01 | 92 | 1018.8 |
| 20260506194530 | 29 | 5 | 9.0 | 13.0 | 0.00 | 0.06 | 0.01 | 92 | 1018.8 |
| 20260506194013 | 29 | 5 | 9.0 | 13.0 | 0.00 | 0.06 | 0.01 | 91 | 1018.8 |
| 20260506193511 | 29 | 15 | 9.0 | 13.0 | 0.00 | 0.06 | 0.01 | 92 | 1018.7 |
| 20260506193033 | 29 | 360 | 9.0 | 14.0 | 0.00 | 0.06 | 0.01 | 92 | 1018.8 |
| 20260506192514 | 29 | 17 | 10.0 | 15.0 | 0.00 | 0.06 | 0.01 | 91 | 1018.7 |
| 20260506192013 | 29 | 9 | 10.0 | 15.0 | 0.00 | 0.06 | 0.01 | 92 | 1018.7 |
| 20260506191531 | 29 | 22 | 11.0 | 16.0 | 0.00 | 0.06 | 0.01 | 91 | 1018.8 |